Hourly Data Report for April 05, 2021

NANAIMO A
BRITISH COLUMBIA
Current Station Operator: NAVCAN

49°03'16.000" N
123°52'12.000" W
28.00 m
1025365
YCD

Download Data

Hourly Data (April 2021)
Hourly Data Report for April 5, 2021
TIME
LST
Temp Definition
°C
Dew Point Definition
°C
Rel Hum Definition
%
Precip. Amount Definition
mm

Wind Dir Definition
10's deg

Wind Spd Definition
km/h
Visibility Definition
km
Stn Press Definition
kPa
Hmdx Definition


Wind Chill Definition


Weather Definition


00:00 6.0 -2.2 56 LegendMM 27 14 LegendMM 102.12     LegendNANA
01:00 5.5 -2.3 57 LegendMM 33 5 LegendMM 102.13     LegendNANA
02:00 5.4 -2.5 57 LegendMM 31 13 LegendMM 102.10     LegendNANA
03:00 3.9 -2.6 62 LegendMM 29 10 LegendMM 102.11     LegendNANA
04:00 3.0 -2.6 66 LegendMM 29 9 LegendMM 102.12     LegendNANA
05:00 0.3 -3.2 77 LegendMM 25 4 LegendMM 102.15     LegendNANA
06:00 0.7 -2.7 78 LegendMM 24 7 LegendMM 102.17     LegendNANA
07:00 3.4 -1.3 71 LegendMM 29 5 LegendMM 102.19     LegendNANA
08:00 6.5 -0.8 59 LegendMM 31 8 LegendMM 102.18     LegendNANA
09:00 8.6 0.9 58 LegendMM 1 17 LegendMM 102.15     LegendNANA
10:00 9.5 1.9 59 LegendMM 1 16 LegendMM 102.13     LegendNANA
11:00 9.8 2.2 59 LegendMM 36 13 LegendMM 102.11     LegendNANA
12:00 10.2 1.9 56 LegendMM 2 6 LegendMM 102.05     LegendNANA
13:00 11.3 1.8 52 LegendMM 2 12 LegendMM 102.03     LegendNANA
14:00 11.0 0.8 49 LegendMM 34 7 LegendMM 101.96     LegendNANA
15:00 11.8 0.7 46 LegendMM 35 4 LegendMM 101.91     LegendNANA
16:00 11.7 0.3 45 LegendMM 6 9 LegendMM 101.84     LegendNANA
17:00 11.5 0.8 48 LegendMM 5 2 LegendMM 101.80     LegendNANA
18:00 10.1 1.3 54 LegendMM 17 8 LegendMM 101.77     LegendNANA
19:00 8.8 1.8 62 LegendMM 20 3 LegendMM 101.76     LegendNANA
20:00 6.2 2.0 75 LegendMM 25 7 LegendMM 101.79     LegendNANA
21:00 4.6 1.4 80 LegendMM 25 3 LegendMM 101.81     LegendNANA
22:00 3.3 1.1 86 LegendMM 16 3 LegendMM 101.80     LegendNANA
23:00 2.0 0.7 91 LegendMM 1 1 LegendMM 101.80     LegendNANA

Notes on Data Quality.

Legend

  • E = Estimated
  • M = Missing
  • NA = Not Available*
  • [empty] = Indicates an unobserved value
Date modified: